Regional Weather Roundup
Issued by NWS

Home | Current Version | Previous Version | Graphics & Text | Print | Product List | Glossary On
Versions: 1 2 3 4 5 6 7 8 9 10 11 12 13 14 15 16 17 18 19 20 21 22 23 24 25 26 27 28 29 30 31 32 33 34 35 36 37 38 39 40 41 42 43 44 45 46 47 48 49 50
000
ASUS44 KMEG 040700
RWRTN
TENNESSEE HOURLY STATE WEATHER ROUNDUP
NATIONAL WEATHER SERVICE MEMPHIS TN
200 AM CDT FRI SEP 04 2015

TNZ002-004-019-021-049-052-054-088>092-040800-
WEST TENNESSEE

CITY           SKY/WX    TMP DP  RH WIND       PRES   REMARKS
MEMPHIS INTL   CLEAR     78  70  76 CALM      29.96S
JACKSON        CLEAR     71  69  93 CALM      29.95F FOG
DYERSBURG      CLEAR     73  72  94 CALM      29.97S
UNION CITY     CLEAR    N/A N/A N/A CALM      29.96S
PARIS          CLEAR     66  64  94 CALM      29.98S
LEXINGTON      CLEAR     70  70 100 E3        29.96S
$$

TNZ008-025-027-028-033-062-065-066-040800-
NORTH MIDDLE TENNESSEE

CITY           SKY/WX    TMP DP  RH WIND       PRES   REMARKS
NASHVILLE      PTCLDY    77  67  71 CALM      29.98S
CLARKSVILLE    CLEAR     70  67  90 CALM      29.97F
COOKEVILLE     CLEAR     66  66 100 CALM      30.00R
CROSSVILLE     CLEAR     68  65  90 CALM      30.05S FOG
$$

TNZ061-075-076-078-094-096-097-040800-
SOUTH MIDDLE TENNESSEE

CITY           SKY/WX    TMP DP  RH WIND       PRES   REMARKS
FAYETTEVILLE   CLEAR     70  70 100 CALM      29.99S
TULLAHOMA      CLEAR     70  66  88 CALM      30.01S
WINCHESTER     CLEAR     70  68  94 CALM      30.00S
COLUMBIA       CLEAR    N/A N/A N/A CALM      29.97S
SHELBYVILLE    CLEAR     72  70  94 CALM      30.00R
$$

TNZ017-018-042-046-047-040800-
NORTHEAST TENNESSEE

CITY           SKY/WX    TMP DP  RH WIND       PRES   REMARKS
TRI CITIES     PTCLDY    65  64  97 CALM      30.02S
ELIZABETHTON   SUNNY     64  63  94 CALM      30.03S
$$

TNZ012-013-036-069-073-074-040800-
CENTRAL EAST TENNESSEE

CITY           SKY/WX    TMP DP  RH WIND       PRES   REMARKS
KNOXVILLE      CLEAR     71  70  96 CALM      29.98S
OAK RIDGE      CLEAR     70  67  90 CALM      30.00S
GATLINBURG     SUNNY     68  64  88 CALM      29.99S
$$

TNZ083-085-099-040800-
SOUTHEAST TENNESSEE

CITY           SKY/WX    TMP DP  RH WIND       PRES   REMARKS
CHATTANOOGA    CLEAR     73  69  87 SW3       29.99R
$$

SKY/WX REPORTED AS FAIR MEANS FEW OR NO CLOUDS BELOW
12 THOUSAND FEET.




USA.gov is the U.S. government's official web portal to all federal, state and local government web resources and services.